Find OneWeb SL0179

NORAD ID: 48212 Int'l Des: 2021-031 Owner: ONEWEBN Country: UK Constellation: oneweb operational
LEOCIRCULARPOLARONEWEB_TYPE

リアルタイム位置

3D地球を読み込み中...

OneWeb SL0179について

説明を読み込み中...

次回通過

Passes for default location (London). Set your location on the main map for personalized predictions.

高度履歴

Loading altitude history...

軌道要素

1 48212U 21031C 26125.16668980 .00183758 00000-0 95296-1 0 9998
2 48212 87.8950 297.3041 0151841 36.6994 68.4798 14.07800210 5414
Epoch: May 5, 2026 • Age: 6 hours

現在のステータス

高度 761.5 km
速度 7.53 km/s
衛星直下点 25.86°N, 81.79°W
打ち上げ日 Apr 25, 2021
運用期間 5 years
タイプ internet

技術仕様

分類 Payload
質量 148.00 kg
乾燥質量 140.00 kg
総質量 148.00 kg
長さ 1.30 m
直径 1.00 m
スパン 5.00 m
形状 Trapezoid+2 pan
製造者 ONEWUS
バスタイプ ARROW
フェーズステータス In Orbit
所有者/国 ONEWEBN/UK

Most Searched